Location: �perlecques
(50.8057°N, 2.1521°E)
Time: 16:45:06
(UTC+00:00)

Tiros 1 - Visible Passes

Search period start: 28 July 2021 00:00
Search period end: 07 August 2021 00:00
Orbit: 630 x 663 km, 48.4° (Epoch: 27 July)

Date Brightness Start Highest point End Pass type
(mag) Time Alt. Az. Time Alt. Az. Time Alt. Az.
28 Jul 8.0 00:25:30 10° W 00:28:31 31° WSW 00:28:31 31° WSW visible
28 Jul 7.1 21:27:10 10° WSW 21:31:52 64° S 21:36:31 10° E visible
28 Jul 7.1 23:09:15 10° W 23:13:52 56° SSW 23:14:48 46° SSE visible
29 Jul 9.2 00:51:41 10° W 00:52:24 13° W 00:52:24 13° W visible
29 Jul 7.1 21:53:03 10° W 21:57:45 66° S 22:01:16 17° ESE visible
29 Jul 7.8 23:35:13 10° W 23:38:53 37° SW 23:38:53 37° SW visible
30 Jul 7.2 20:36:54 10° WSW 20:41:37 63° S 20:46:17 10° E visible
30 Jul 7.2 22:18:58 10° W 22:23:37 57° SSW 22:25:26 34° SE visible
31 Jul 8.9 00:01:22 10° W 00:03:03 18° WSW 00:03:03 18° WSW visible
31 Jul 7.1 21:02:47 10° W 21:07:30 66° S 21:12:03 11° E visible
31 Jul 7.5 22:44:57 10° W 22:49:24 42° SSW 22:49:40 42° SSW visible
01 Aug 7.2 21:28:42 10° W 21:33:22 59° SSW 21:36:21 21° ESE visible
01 Aug 8.5 23:11:04 10° W 23:13:57 25° SW 23:13:57 25° SW visible
02 Aug 7.2 20:12:30 10° W 20:17:14 67° S 20:21:55 10° E visible
02 Aug 7.6 21:54:39 10° W 21:59:10 44° SSW 22:00:41 33° SSE visible
02 Aug 9.4 23:37:39 10° WSW 23:38:18 12° WSW 23:38:18 12° WSW visible
03 Aug 7.3 20:38:25 10° W 20:43:07 60° S 20:47:26 12° ESE visible
03 Aug 8.1 22:20:45 10° W 22:24:50 29° SSW 22:25:03 29° SSW visible
04 Aug 7.6 21:04:23 10° W 21:08:55 46° SSW 21:11:50 20° SE visible
04 Aug 9.0 22:47:15 10° W 22:49:28 17° SW 22:49:28 17° SW visible
05 Aug 8.2 21:30:26 10° W 21:34:36 31° SSW 21:36:18 24° S visible
06 Aug 7.7 20:14:05 10° W 20:18:40 48° SSW 20:23:09 10° SE visible
06 Aug 8.8 21:56:52 10° W 22:00:08 19° SW 22:00:47 18° SSW visible
